sat.trackr.live / text

‹ back to catalog

MMS 1

NORAD 40482 · 2015-011A

PAYLOAD ACTIVE UNKNOWN

§ Identity

Operator
Country
US
Launch date
2015-03-13
Launch site
AFETR
Launch vehicle
Mass (kg)
RCS (m²)
3.29

Purposes: science

External: N2YO · Heavens-Above · Gunter

§ Orbital elements

Epoch: 2026-05-25T06:00:02.000160Z

Period
5,079.72 min
Inclination
71.8170°
Eccentricity
0.8340333
Mean motion
0.28348037 rev/d
Perigee alt
9,867.7 km
Apogee alt
173,147.7 km
Semi-major
97,885.8 km
B*
0.0000e+0
RAAN
349.1070°
Arg perigee
166.9233°
Mean anomaly
118.7011°
Rev number
137

§ Raw data

MMS 11 40482U 15011A   26145.25002315 -.00000131  00000+0  00000+0 0  99962 40482  71.8170 349.1070 8340333 166.9233 118.7011  0.28348037  1377

JSON: /api/v1/satellites/40482 · /tle

For live sub-satellite position, see the globe view (requires WebGL).

§ Visibility from observer

Set your observer location to see the next 7 days of passes ≥ 10°. The values pass through the URL so the page stays shareable.

No JS? Fill the form by hand. The geolocation button needs JavaScript.